Location: Boncourt
(49.6160°N, 3.9448°E)
Time: 07:36:47
(UTC+00:00)

Cosmos 2219 Rocket - Pass Details

Date: 09 February 2023
Orbit: 826 x 848 km, 71.0° (Epoch: 22 March)

Event Time Altitude Azimuth Distance (km) Brightness Sun altitude
Rises 19:53:50 0° 252° (WSW) 3,365 6.2 -29.6°
Reaches altitude 10° 19:56:45 10° 266° (W) 2,437 5.4 -30.1°
Maximum altitude 20:01:10 23° 319° (NW) 1,690 4.2 -30.8°
Enters shadow 20:05:18 11° 9° (N) 2,365 4.6 -31.4°
